Curtin, Australia

3:49 AM AWST on February 20, 2018 (GMT +0800)
Curtin

Weather History for YCIN - September, 2012

Change the Weather History Date:

Thursday, September 20, 2012

  Actual Average Record
Temperature  
Mean Temperature 80 °F -  
Max Temperature 101 °F - - ()
Min Temperature 60 °F - - ()
Cooling Degree Days 16    
Growing Degree Days 30 (Base 50)    
Moisture  
Dew Point 51 °F    
Average Humidity 44    
Maximum Humidity 88    
Minimum Humidity 7    
Precipitation  
Precipitation 0.00 in - - ()
Sea Level Pressure  
Sea Level Pressure 29.90 in    
Wind  
Wind Speed 5 mph ()    
Max Wind Speed 7 mph    
Max Gust Speed -    
T = Trace of Precipitation, MM = Missing Value Source: Averaged Metar Reports

Daily Weather History Graph

Daily Weather History Graph

Search for Another Location

Airport or City:

Trip Planner

Search our weather history database for the weather conditions in past years. The results will help you decide how hot, cold, wet, or windy it might be!

Date:

Astronomy

Sep. 20, 2012 Rise Set
Actual Time 5:36 AM AWST 5:40 PM AWST
Civil Twilight 5:14 AM AWST 6:02 PM AWST
Nautical Twilight 4:49 AM AWST 6:27 PM AWST
Astronomical Twilight 4:23 AM AWST 6:52 PM AWST
Moon 8:34 AM AWST (9/20) 9:54 PM AWST (9/20)
Length of Visible Light 12h 47m
Length of Day
12h 04m
Waxing Crescent, 21% of the Moon is Illuminated
Sep 20
Waxing Crescent
Sep 23
First Quarter
Sep 30
Full
Oct 8
Last Quarter
Oct 15
New

Hourly Weather History & Observations

Time (AWST) Temp. Dew Point Humidity Pressure Visibility Wind Dir Wind Speed Gust Speed Precip Events Conditions
12:00 AM 72 °F 52 °F 38% 29.89 in - SW 6.9 mph - -  
12:00 AM 71.6 °F 51.8 °F 50% 29.89 in - SSW 6.9 mph - N/A   Unknown
1:00 AM 68.0 °F 51.8 °F 56% 29.89 in - SW 4.6 mph - N/A   Unknown
2:00 AM 66.2 °F 60.8 °F 83% 29.89 in - SSW 5.8 mph - N/A   Unknown
3:00 AM 66 °F 61 °F 80% 29.88 in - SW 4.6 mph - -  
3:00 AM 66.2 °F 60.8 °F 83% 29.89 in - SW 4.6 mph - N/A   Unknown
4:00 AM 64.4 °F 60.8 °F 88% 29.89 in - SSW 3.5 mph - N/A   Unknown
5:00 AM 62.6 °F 57.2 °F 82% 29.92 in - South 4.6 mph - N/A   Unknown
6:00 AM 60 °F 57 °F 87% 29.93 in - Calm Calm - -  
6:00 AM 60.8 °F 57.2 °F 88% 29.92 in - Calm Calm - N/A   Unknown
7:00 AM 69.8 °F 64.4 °F 83% 29.95 in - South 1.2 mph - N/A   Unknown
8:00 AM 80.6 °F 51.8 °F 37% 29.98 in - South 4.6 mph - N/A   Unknown
9:00 AM 86 °F 46 °F 16% 29.97 in - South 5.8 mph - -  
9:00 AM 86.0 °F 46.4 °F 25% 29.98 in - South 5.8 mph - N/A   Unknown
10:00 AM 91.4 °F 41.0 °F 17% 29.95 in - SSW 6.9 mph - N/A   Unknown
11:00 AM 95.0 °F 39.2 °F 14% 29.92 in - SW 6.9 mph - N/A   Unknown
12:00 PM 96 °F 40 °F 7% 29.90 in - West 5.8 mph - -  
1:00 PM 98.6 °F 41.0 °F 14% 29.86 in - NW 6.9 mph - N/A   Unknown
2:00 PM 98.6 °F 39.2 °F 13% 29.83 in - West 3.5 mph - N/A   Unknown
3:00 PM 100 °F 43 °F 7% 29.83 in - West 6.9 mph - -  
3:00 PM 100.4 °F 42.8 °F 14% 29.83 in - West 6.9 mph - N/A   Unknown
4:00 PM 98.6 °F 41.0 °F 14% 29.83 in - West 5.8 mph - N/A   Unknown
5:00 PM 96.8 °F 42.8 °F 16% 29.83 in - West 4.6 mph - N/A   Unknown
6:00 PM 85 °F 52 °F 22% 29.87 in - NW 6.9 mph - -  
6:00 PM 86.0 °F 51.8 °F 31% 29.86 in - NW 6.9 mph - N/A   Unknown
7:00 PM 77.0 °F 50.0 °F 39% 29.92 in - WNW 4.6 mph - N/A   Unknown
8:00 PM 75.2 °F 57.2 °F 53% 29.92 in - North 5.8 mph - N/A   Unknown
9:00 PM 72 °F 57 °F 49% 29.94 in - WNW 4.6 mph - -  
9:00 PM 71.6 °F 57.2 °F 60% 29.95 in - WNW 4.6 mph - N/A   Unknown
10:00 PM 69.8 °F 59.0 °F 68% 29.92 in - SW 4.6 mph - N/A   Unknown
11:00 PM 73.4 °F 50.0 °F 44% 29.92 in - SW 6.9 mph - N/A   Unknown